AAL626A KABQ-KPHX

Flight info

Callsign AAL626A
Flight time 0h 51m
Altitude 32000
Route ADYOS3 ZUN EAGUL6
Aircraft A20N/M-SDE2E3FGHIRWXY/LB1

Departure

Time 2026-05-06 14:38
Airport Albuquerque International Sunport (KABQ)

Arrival

Time 2026-05-06 15:29
Airport Phoenix Sky Harbor International Airport (KPHX)
Time Latitude Longitude Altitude Speed Heading
2026-05-06 14:14 35.04700 -106.61687 5321 ft 0 kts 12°
2026-05-06 14:27 35.04688 -106.61690 5316 ft 2 kts 12°
2026-05-06 14:27 35.04673 -106.61694 5316 ft 2 kts 13°
2026-05-06 14:27 35.04659 -106.61699 5312 ft 2 kts 23°
2026-05-06 14:27 35.04646 -106.61707 5316 ft 2 kts 35°
2026-05-06 14:28 35.04630 -106.61724 5311 ft 3 kts 54°
2026-05-06 14:28 35.04618 -106.61746 5311 ft 3 kts 54°
2026-05-06 14:28 35.04605 -106.61768 5314 ft 3 kts 55°
2026-05-06 14:28 35.04592 -106.61791 5313 ft 3 kts 55°
2026-05-06 14:29 35.04579 -106.61813 5316 ft 3 kts 55°
2026-05-06 14:29 35.04567 -106.61835 5315 ft 3 kts 59°
2026-05-06 14:29 35.04559 -106.61860 5320 ft 3 kts 83°
2026-05-06 14:29 35.04558 -106.61866 5317 ft 0 kts 87°
2026-05-06 14:30 35.04558 -106.61863 5316 ft 2 kts 88°
2026-05-06 14:31 35.04558 -106.61805 5313 ft 11 kts 91°
2026-05-06 14:31 35.04555 -106.61679 5314 ft 18 kts 87°
2026-05-06 14:31 35.04554 -106.61498 5313 ft 22 kts 90°
2026-05-06 14:31 35.04557 -106.61327 5317 ft 15 kts 61°
2026-05-06 14:32 35.04584 -106.61231 5314 ft 11 kts 87°
2026-05-06 14:32 35.04583 -106.61125 5318 ft 14 kts 92°
2026-05-06 14:32 35.04580 -106.60999 5315 ft 15 kts 89°
2026-05-06 14:32 35.04580 -106.60868 5315 ft 16 kts 91°
2026-05-06 14:33 35.04578 -106.60724 5321 ft 18 kts 91°
2026-05-06 14:33 35.04579 -106.60559 5317 ft 21 kts 89°
2026-05-06 14:33 35.04580 -106.60366 5315 ft 23 kts 90°
2026-05-06 14:33 35.04578 -106.60161 5321 ft 25 kts 90°
2026-05-06 14:34 35.04581 -106.59946 5317 ft 27 kts 84°
2026-05-06 14:34 35.04587 -106.59734 5318 ft 23 kts 91°
2026-05-06 14:34 35.04585 -106.59527 5313 ft 26 kts 91°
2026-05-06 14:34 35.04581 -106.59306 5315 ft 26 kts 92°
2026-05-06 14:35 35.04589 -106.59081 5320 ft 27 kts 88°
2026-05-06 14:35 35.04595 -106.58850 5318 ft 28 kts 89°
2026-05-06 14:35 35.04584 -106.58615 5312 ft 28 kts 94°
2026-05-06 14:35 35.04576 -106.58379 5320 ft 28 kts 91°
2026-05-06 14:36 35.04575 -106.58137 5321 ft 29 kts 85°
2026-05-06 14:36 35.04590 -106.57892 5321 ft 29 kts 86°
2026-05-06 14:36 35.04573 -106.57722 5316 ft 11 kts 127°
2026-05-06 14:36 35.04501 -106.57707 5316 ft 11 kts 186°
2026-05-06 14:37 35.04418 -106.57728 5316 ft 11 kts 224°
2026-05-06 14:37 35.04411 -106.57837 5312 ft 21 kts 272°
2026-05-06 14:37 35.04409 -106.58282 5319 ft 82 kts 270°
2026-05-06 14:37 35.04418 -106.59192 5320 ft 130 kts 270°
2026-05-06 14:38 35.04434 -106.60458 5367 ft 163 kts 267°
2026-05-06 14:38 35.04451 -106.61549 5755 ft 162 kts 267°
2026-05-06 14:38 35.04395 -106.62929 6285 ft 164 kts 262°
2026-05-06 14:38 35.04287 -106.64334 6761 ft 171 kts 262°
2026-05-06 14:39 35.04138 -106.65854 6995 ft 192 kts 262°
2026-05-06 14:39 35.03994 -106.67570 7235 ft 216 kts 264°
2026-05-06 14:39 35.03870 -106.69528 7546 ft 243 kts 266°
2026-05-06 14:39 35.03760 -106.71657 8025 ft 263 kts 268°
2026-05-06 14:40 35.03657 -106.73908 8742 ft 272 kts 268°
2026-05-06 14:40 35.03585 -106.76221 9684 ft 273 kts 276°
2026-05-06 14:40 35.03892 -106.78522 10449 ft 281 kts 282°
2026-05-06 14:40 35.04264 -106.80939 10773 ft 304 kts 280°
2026-05-06 14:41 35.04456 -106.83606 11155 ft 323 kts 273°
2026-05-06 14:41 35.04539 -106.86368 11931 ft 327 kts 273°
2026-05-06 14:41 35.04634 -106.89127 12664 ft 329 kts 273°
2026-05-06 14:41 35.04733 -106.91925 13516 ft 332 kts 272°
2026-05-06 14:42 35.04697 -106.94768 14208 ft 338 kts 268°
2026-05-06 14:42 35.04610 -106.97655 14902 ft 342 kts 269°
2026-05-06 14:42 35.04525 -107.00564 15640 ft 345 kts 269°
2026-05-06 14:42 35.04440 -107.03505 16366 ft 348 kts 269°
2026-05-06 14:43 35.04355 -107.06477 16981 ft 354 kts 268°
2026-05-06 14:43 35.04267 -107.09511 17610 ft 359 kts 268°
2026-05-06 14:43 35.04177 -107.12573 18311 ft 362 kts 268°
2026-05-06 14:43 35.04084 -107.15670 18876 ft 367 kts 269°
2026-05-06 14:44 35.04022 -107.17736 19265 ft 369 kts 269°
2026-05-06 14:44 35.03926 -107.20871 19829 ft 373 kts 269°
2026-05-06 14:44 35.03829 -107.24056 20399 ft 377 kts 269°
2026-05-06 14:45 35.03628 -107.30522 21521 ft 385 kts 269°
2026-05-06 14:45 35.03527 -107.33816 22084 ft 390 kts 269°
2026-05-06 14:45 35.03426 -107.37091 22621 ft 394 kts 269°
2026-05-06 14:45 35.03323 -107.40426 23135 ft 398 kts 270°
2026-05-06 14:46 35.03215 -107.43827 23531 ft 405 kts 271°
2026-05-06 14:46 35.03105 -107.47270 24120 ft 404 kts 270°
2026-05-06 14:46 35.02996 -107.50655 24915 ft 397 kts 269°
2026-05-06 14:46 35.02890 -107.54034 25430 ft 399 kts 269°
2026-05-06 14:47 35.02782 -107.57452 25781 ft 404 kts 269°
2026-05-06 14:47 35.02672 -107.60880 26323 ft 404 kts 268°
2026-05-06 14:47 35.02559 -107.64309 26821 ft 405 kts 268°
2026-05-06 14:47 35.02444 -107.67751 27286 ft 406 kts 268°
2026-05-06 14:48 35.02330 -107.71156 27775 ft 406 kts 267°
2026-05-06 14:48 35.02213 -107.74604 28239 ft 407 kts 267°
2026-05-06 14:48 35.02093 -107.78084 28429 ft 414 kts 268°
2026-05-06 14:48 35.01971 -107.81611 28784 ft 416 kts 267°
2026-05-06 14:49 35.01848 -107.85144 29268 ft 416 kts 267°
2026-05-06 14:49 35.01724 -107.88680 29685 ft 417 kts 267°
2026-05-06 14:49 35.01600 -107.92180 30066 ft 418 kts 267°
2026-05-06 14:49 35.01474 -107.95718 30438 ft 418 kts 266°
2026-05-06 14:50 35.01347 -107.99258 30866 ft 416 kts 266°
2026-05-06 14:50 35.01219 -108.02785 31295 ft 415 kts 266°
2026-05-06 14:50 35.01092 -108.06285 31781 ft 410 kts 266°
2026-05-06 14:50 35.00966 -108.09747 31970 ft 406 kts 265°
2026-05-06 14:51 35.00839 -108.13164 32009 ft 405 kts 265°
2026-05-06 14:51 35.00583 -108.19954 32011 ft 405 kts 265°
2026-05-06 14:52 35.00320 -108.26821 32007 ft 405 kts 265°
2026-05-06 14:52 35.00053 -108.33685 32012 ft 405 kts 265°
2026-05-06 14:53 34.99783 -108.40558 32012 ft 405 kts 265°
2026-05-06 14:53 34.99504 -108.47469 32012 ft 414 kts 266°
2026-05-06 14:54 34.99218 -108.54507 32011 ft 414 kts 266°
2026-05-06 14:54 34.98932 -108.61474 32013 ft 414 kts 266°
2026-05-06 14:55 34.98640 -108.68487 32017 ft 414 kts 266°
2026-05-06 14:55 34.98343 -108.75508 32013 ft 416 kts 266°
2026-05-06 14:56 34.98033 -108.82699 32012 ft 430 kts 266°
2026-05-06 14:56 34.97717 -108.89984 32008 ft 429 kts 266°
2026-05-06 14:57 34.97397 -108.97261 32006 ft 429 kts 266°
2026-05-06 14:57 34.97075 -109.04483 32001 ft 429 kts 266°
2026-05-06 14:58 34.96651 -109.11844 31999 ft 442 kts 262°
2026-05-06 14:58 34.95154 -109.19194 31996 ft 449 kts 250°
2026-05-06 14:59 34.92681 -109.26111 31987 ft 437 kts 247°
2026-05-06 14:59 34.90212 -109.32889 31987 ft 441 kts 247°
2026-05-06 15:00 34.87717 -109.39726 31989 ft 440 kts 247°
2026-05-06 15:00 34.85223 -109.46536 31984 ft 440 kts 247°
2026-05-06 15:01 34.82708 -109.53388 32011 ft 446 kts 246°
2026-05-06 15:01 34.80169 -109.60288 32012 ft 446 kts 246°
2026-05-06 15:02 34.77644 -109.67136 32008 ft 446 kts 246°
2026-05-06 15:02 34.75097 -109.74022 32002 ft 446 kts 246°
2026-05-06 15:03 34.72548 -109.80899 31990 ft 446 kts 246°
2026-05-06 15:03 34.69984 -109.87807 31972 ft 448 kts 246°
2026-05-06 15:04 34.67412 -109.94725 31990 ft 449 kts 246°
2026-05-06 15:04 34.64846 -110.01617 31996 ft 450 kts 246°
2026-05-06 15:05 34.62260 -110.08543 32008 ft 451 kts 246°
2026-05-06 15:05 34.59663 -110.15486 31997 ft 452 kts 246°
2026-05-06 15:06 34.57055 -110.22441 32043 ft 452 kts 246°
2026-05-06 15:06 34.54472 -110.29313 32008 ft 441 kts 246°
2026-05-06 15:07 34.51921 -110.36087 31562 ft 442 kts 246°
2026-05-06 15:07 34.50643 -110.39477 30620 ft 451 kts 246°
2026-05-06 15:07 34.49341 -110.42926 30201 ft 445 kts 246°
2026-05-06 15:07 34.48070 -110.46286 30065 ft 431 kts 246°
2026-05-06 15:08 34.46828 -110.49569 29436 ft 427 kts 246°
2026-05-06 15:08 34.45584 -110.52853 28745 ft 427 kts 246°
2026-05-06 15:08 34.44352 -110.56101 28219 ft 422 kts 246°
2026-05-06 15:08 34.43131 -110.59317 27694 ft 418 kts 246°
2026-05-06 15:09 34.41935 -110.62466 27184 ft 414 kts 246°
2026-05-06 15:09 34.40730 -110.65631 26663 ft 411 kts 246°
2026-05-06 15:09 34.39536 -110.68766 26149 ft 408 kts 246°
2026-05-06 15:09 34.38347 -110.71887 25638 ft 406 kts 246°
2026-05-06 15:10 34.37165 -110.74987 25137 ft 404 kts 246°
2026-05-06 15:10 34.35925 -110.77997 24640 ft 402 kts 241°
2026-05-06 15:10 34.34354 -110.80809 24133 ft 402 kts 232°
2026-05-06 15:10 34.32509 -110.83323 23607 ft 401 kts 227°
2026-05-06 15:11 34.30604 -110.85768 23094 ft 398 kts 227°
2026-05-06 15:11 34.28719 -110.88201 22606 ft 395 kts 227°
2026-05-06 15:11 34.26876 -110.90585 22123 ft 391 kts 227°
2026-05-06 15:11 34.25023 -110.92982 21650 ft 388 kts 227°
2026-05-06 15:12 34.23188 -110.95354 21170 ft 385 kts 227°
2026-05-06 15:12 34.21363 -110.97710 20693 ft 382 kts 227°
2026-05-06 15:12 34.19571 -111.00021 20220 ft 379 kts 227°
2026-05-06 15:12 34.17772 -111.02340 19750 ft 377 kts 227°
2026-05-06 15:13 34.15981 -111.04647 19280 ft 375 kts 228°
2026-05-06 15:13 34.14207 -111.06932 18934 ft 369 kts 228°
2026-05-06 15:13 34.12490 -111.09140 18721 ft 359 kts 228°
2026-05-06 15:13 34.10789 -111.11327 18323 ft 355 kts 228°
2026-05-06 15:14 34.09108 -111.13486 17861 ft 353 kts 228°
2026-05-06 15:14 34.07467 -111.15594 17372 ft 351 kts 228°
2026-05-06 15:14 34.05821 -111.17708 16921 ft 348 kts 228°
2026-05-06 15:14 34.04162 -111.19836 16496 ft 346 kts 228°
2026-05-06 15:15 34.02518 -111.21943 16075 ft 344 kts 228°
2026-05-06 15:15 34.00882 -111.24039 15600 ft 341 kts 228°
2026-05-06 15:15 33.99259 -111.26116 15162 ft 339 kts 228°
2026-05-06 15:15 33.97641 -111.28186 14735 ft 337 kts 228°
2026-05-06 15:16 33.96037 -111.30236 14313 ft 335 kts 228°
2026-05-06 15:16 33.94442 -111.32275 13886 ft 333 kts 228°
2026-05-06 15:16 33.92852 -111.34306 13428 ft 331 kts 228°
2026-05-06 15:16 33.91284 -111.36307 13016 ft 327 kts 228°
2026-05-06 15:17 33.89729 -111.38291 12610 ft 324 kts 228°
2026-05-06 15:17 33.88195 -111.40193 12407 ft 315 kts 224°
2026-05-06 15:17 33.86480 -111.41808 12080 ft 311 kts 216°
2026-05-06 15:17 33.84716 -111.43310 11700 ft 309 kts 217°
2026-05-06 15:18 33.82971 -111.44804 11313 ft 307 kts 217°
2026-05-06 15:18 33.81265 -111.46271 10926 ft 304 kts 217°
2026-05-06 15:18 33.79545 -111.47749 10552 ft 302 kts 217°
2026-05-06 15:18 33.77834 -111.49220 10177 ft 301 kts 217°
2026-05-06 15:19 33.76132 -111.50683 9793 ft 300 kts 217°
2026-05-06 15:19 33.74438 -111.52140 9402 ft 297 kts 217°
2026-05-06 15:19 33.72785 -111.53559 9027 ft 294 kts 216°
2026-05-06 15:19 33.71120 -111.54989 8654 ft 292 kts 216°
2026-05-06 15:20 33.69475 -111.56402 8301 ft 289 kts 216°
2026-05-06 15:20 33.67859 -111.57788 8124 ft 281 kts 216°
2026-05-06 15:20 33.66306 -111.59120 8089 ft 267 kts 216°
2026-05-06 15:20 33.64832 -111.60383 8091 ft 252 kts 216°
2026-05-06 15:21 33.63447 -111.61564 7983 ft 240 kts 216°
2026-05-06 15:21 33.62091 -111.62702 7609 ft 240 kts 216°
2026-05-06 15:21 33.60721 -111.63844 7274 ft 239 kts 216°
2026-05-06 15:21 33.59363 -111.64976 6954 ft 236 kts 216°
2026-05-06 15:22 33.58024 -111.66093 6658 ft 234 kts 216°
2026-05-06 15:22 33.56696 -111.67202 6347 ft 232 kts 216°
2026-05-06 15:22 33.55380 -111.68303 6061 ft 228 kts 216°
2026-05-06 15:22 33.54100 -111.69382 5855 ft 222 kts 216°
2026-05-06 15:23 33.52851 -111.70439 5601 ft 218 kts 216°
2026-05-06 15:23 33.51619 -111.71482 5353 ft 214 kts 216°
2026-05-06 15:23 33.50398 -111.72516 5061 ft 216 kts 216°
2026-05-06 15:23 33.49164 -111.73559 4788 ft 216 kts 216°
2026-05-06 15:24 33.47956 -111.74578 4568 ft 213 kts 215°
2026-05-06 15:24 33.46839 -111.75711 4508 ft 207 kts 229°
2026-05-06 15:24 33.46057 -111.77064 4483 ft 189 kts 242°
2026-05-06 15:24 33.45429 -111.78422 4190 ft 187 kts 240°
2026-05-06 15:25 33.44774 -111.79797 4053 ft 195 kts 240°
2026-05-06 15:25 33.44249 -111.81267 3990 ft 187 kts 258°
2026-05-06 15:25 33.44120 -111.82271 3893 ft 175 kts 265°
2026-05-06 15:25 33.44064 -111.84091 3605 ft 157 kts 271°
2026-05-06 15:26 33.44066 -111.84952 3473 ft 150 kts 271°
2026-05-06 15:26 33.44067 -111.86223 3277 ft 154 kts 270°
2026-05-06 15:26 33.44068 -111.87487 3060 ft 153 kts 270°
2026-05-06 15:26 33.44070 -111.88777 2855 ft 153 kts 270°
2026-05-06 15:27 33.44071 -111.90037 2661 ft 153 kts 270°
2026-05-06 15:27 33.44073 -111.91315 2463 ft 153 kts 270°
2026-05-06 15:27 33.44074 -111.92593 2260 ft 153 kts 270°
2026-05-06 15:27 33.44076 -111.93873 2067 ft 153 kts 269°
2026-05-06 15:28 33.44078 -111.95144 1873 ft 153 kts 270°
2026-05-06 15:28 33.44081 -111.96417 1651 ft 152 kts 269°
2026-05-06 15:28 33.44080 -111.97641 1447 ft 151 kts 270°
2026-05-06 15:28 33.44083 -111.98886 1229 ft 151 kts 270°
2026-05-06 15:29 33.44080 -112.00146 1135 ft 138 kts 270°
2026-05-06 15:29 33.44083 -112.00927 1129 ft 50 kts 270°
2026-05-06 15:29 33.44082 -112.01141 1131 ft 18 kts 270°
2026-05-06 15:29 33.44081 -112.01268 1135 ft 14 kts 269°
2026-05-06 15:30 33.44015 -112.01353 1120 ft 17 kts 173°
2026-05-06 15:30 33.43975 -112.01233 1120 ft 18 kts 91°
2026-05-06 15:30 33.43975 -112.01080 1120 ft 20 kts 88°
2026-05-06 15:30 33.43979 -112.00906 1123 ft 22 kts 89°
2026-05-06 15:31 33.43975 -112.00718 1120 ft 23 kts 91°
2026-05-06 15:31 33.43974 -112.00516 1126 ft 25 kts 90°
2026-05-06 15:31 33.43974 -112.00318 1124 ft 23 kts 90°
2026-05-06 15:32 33.43933 -112.00076 1119 ft 13 kts 167°
2026-05-06 15:32 33.43847 -112.00075 1122 ft 12 kts 180°
2026-05-06 15:32 33.43757 -112.00075 1120 ft 10 kts 179°
2026-05-06 15:32 33.43728 -112.00086 1122 ft 4 kts 242°
2026-05-06 15:33 33.43724 -112.00109 1121 ft 1 kts 269°
2026-05-06 15:33 33.43724 -112.00127 1121 ft 0 kts 270°